Weather History for KPIA - September, 2014

Change the Weather History Date:

Monday, September 8, 2014

  Actual Average Record
Temperature  
Mean Temperature 68 °F 69 °F  
Max Temperature 80 °F 80 °F 100 °F (1922)
Min Temperature 55 °F 59 °F 39 °F (1986)
Degree Days  
Heating Degree Days 0 1  
Month to date heating degree days 0 7  
Since 1 July heating degree days 2 13  
Cooling Degree Days 3 5  
Month to date cooling degree days 66 50  
Year to date cooling degree days 1090 957  
Growing Degree Days 18 (Base 50)    
Moisture  
Dew Point 54 °F    
Average Humidity 63    
Maximum Humidity 86    
Minimum Humidity 39    
Precipitation  
Precipitation 0.00 in 0.11 in 1.92 in (1927)
Month to date precipitation 0.78 0.89  
Year to date precipitation 30.86 25.84  
Snow  
Snow 0.00 in 0.00 in 0.00 in ()
Month to date snowfall 0.0 0.0  
Since 1 July snowfall 0.0 0.0  
Since 1 September snowfall 0.0 0.0  
Snow Depth 0.00 in    
Sea Level Pressure  
Sea Level Pressure 30.06 in    
Wind  
Wind Speed 6 mph (SSE)    
Max Wind Speed 17 mph    
Max Gust Speed 23 mph    
Visibility 10 miles    
Events      
T = Trace of Precipitation, MM = Missing Value Source: NWS Daily Summary

Daily Weather History Graph

Daily Weather History Graph

Search for Another Location

Airport or City:

Trip Planner

Search our weather history database for the weather conditions in past years. The results will help you decide how hot, cold, wet, or windy it might be!

Date:

Astronomy

Sep. 08, 2014 Rise Set
Actual Time 6:32 AM CDT 7:19 PM CDT
Civil Twilight 6:04 AM CDT 7:47 PM CDT
Nautical Twilight 5:32 AM CDT 8:19 PM CDT
Astronomical Twilight 4:57 AM CDT 8:53 PM CDT
Moon 6:59 PM CDT (9/8) 5:57 AM CDT (9/8)
Length of Visible Light 13h 42m
Length of Day
12h 46m
Full, 100% of the Moon is Illuminated
Sep 8
Full
Sep 8
Full
Sep 15
Last Quarter
Sep 24
New
Oct 1
First Quarter

Hourly Weather History & Observations

Time (CDT) Temp. Heat Index Dew Point Humidity Pressure Visibility Wind Dir Wind Speed Gust Speed Precip Events Conditions
12:54 AM 63.0 °F - 52.0 °F 67% 30.14 in 10.0 mi SE 4.6 mph - N/A   Clear
1:54 AM 63.0 °F - 51.1 °F 65% 30.13 in 10.0 mi SSE 3.5 mph - N/A   Clear
2:54 AM 57.9 °F - 53.1 °F 84% 30.14 in 10.0 mi Calm Calm - N/A   Clear
3:54 AM 57.0 °F - 52.0 °F 83% 30.12 in 10.0 mi NE 3.5 mph - N/A   Clear
4:54 AM 57.0 °F - 52.0 °F 83% 30.12 in 10.0 mi Calm Calm - N/A   Clear
5:54 AM 55.9 °F - 52.0 °F 87% 30.12 in 10.0 mi Calm Calm - N/A   Clear
6:54 AM 55.9 °F - 52.0 °F 87% 30.12 in 10.0 mi Calm Calm - N/A   Clear
7:54 AM 62.1 °F - 55.0 °F 78% 30.12 in 10.0 mi Calm Calm - N/A   Clear
8:54 AM 66.9 °F - 55.0 °F 66% 30.12 in 10.0 mi Calm Calm - N/A   Clear
9:54 AM 70.0 °F - 55.0 °F 59% 30.11 in 10.0 mi South 5.8 mph - N/A   Clear
10:54 AM 73.9 °F - 55.9 °F 53% 30.11 in 10.0 mi South 6.9 mph - N/A   Clear
11:54 AM 75.0 °F - 54.0 °F 48% 30.10 in 10.0 mi SSE 5.8 mph - N/A   Clear
12:54 PM 75.9 °F - 53.1 °F 45% 30.07 in 10.0 mi SSE 9.2 mph - N/A   Clear
1:54 PM 78.1 °F - 54.0 °F 43% 30.04 in 10.0 mi SSE 10.4 mph - N/A   Clear
2:54 PM 79.0 °F - 53.1 °F 40% 30.03 in 10.0 mi SSE 9.2 mph - N/A   Clear
3:54 PM 80.1 °F 79.9 °F 53.1 °F 39% 30.01 in 10.0 mi SSE 9.2 mph - N/A   Clear
4:54 PM 80.1 °F 79.9 °F 53.1 °F 39% 29.99 in 10.0 mi South 8.1 mph - N/A   Clear
5:54 PM 79.0 °F - 54.0 °F 42% 29.99 in 10.0 mi South 5.8 mph - N/A   Clear
6:54 PM 73.9 °F - 55.0 °F 52% 30.00 in 10.0 mi South 4.6 mph - N/A   Clear
7:54 PM 72.0 °F - 53.1 °F 51% 30.00 in 10.0 mi SSE 3.5 mph - N/A   Partly Cloudy
8:54 PM 71.1 °F - 54.0 °F 55% 29.98 in 10.0 mi South 8.1 mph - N/A   Clear
9:54 PM 70.0 °F - 55.0 °F 59% 29.98 in 10.0 mi South 10.4 mph - N/A   Clear
10:54 PM 71.1 °F - 57.0 °F 61% 29.94 in 10.0 mi South 13.8 mph - N/A   Clear
11:54 PM 70.0 °F - 55.9 °F 61% 29.94 in 10.0 mi South 10.4 mph - N/A   Clear